When you browse on this site, cookies collect data to enhance your experience and personalize the content and advertising you see.
Visit our Privacy Policy to learn more. By continuing to use the site, you agree to this use of cookies and data.
  • In Lithuania
  • List of Countries
  • For 7 days
  • Water Temperature
  • Satellite Maps
  • Weather Map
  • Weather Widgets
  • user-avatar
    Login

    Hourly Weather Bezopasnoe

    Today, 12 December, Wednesday

    Time Temperature Precipitation Wind Pressure Humidity
    00:00 +5°C° 0 mm 2 mps 748 mmHg 93%
    01:00 +5°C° 0 mm 2 mps 748 mmHg 93%
    02:00 +5°C° 0 mm 2 mps 749 mmHg 92%
    03:00 +5°C° 0 mm 2 mps 749 mmHg 89%
    04:00 +5°C° 0 mm 2 mps 749 mmHg 88%
    05:00 +5°C° 0 mm 2 mps 749 mmHg 88%
    06:00 +5°C° 0 mm 2 mps 749 mmHg 87%
    07:00 +5°C° 0 mm 2 mps 749 mmHg 88%
    08:00 +4°C° 0 mm 3 mps 749 mmHg 88%
    09:00 +4°C° 0 mm 3 mps 750 mmHg 88%
    10:00 +5°C° 0 mm 3 mps 749 mmHg 85%
    11:00 +7°C° 0 mm 3 mps 749 mmHg 82%
    12:00 +8°C° 0 mm 3 mps 749 mmHg 78%
    13:00 +8°C° 0.1 mm 2 mps 749 mmHg 79%
    14:00 +8°C° 0.1 mm 2 mps 749 mmHg 80%
    15:00 +9°C° 0.1 mm 1 mps 749 mmHg 81%
    16:00 +8°C° 0.7 mm 1 mps 749 mmHg 85%
    17:00 +8°C° 0.7 mm 1 mps 750 mmHg 88%
    18:00 +7°C° 0.7 mm 1 mps 750 mmHg 92%
    19:00 +7°C° 1.2 mm 1 mps 750 mmHg 92%
    20:00 +6°C° 1.2 mm 2 mps 750 mmHg 93%
    21:00 +6°C° 1.2 mm 2 mps 751 mmHg 93%
    22:00 +4°C° 0.8 mm 3 mps 751 mmHg 92%
    23:00 +4°C° 0.8 mm 3 mps 751 mmHg 90%

    Tomorrow, 13 December, Thursday

    Time Temperature Precipitation Wind Pressure Humidity
    00:00 +4°C° 0.8 mm 4 mps 752 mmHg 88%
    01:00 +3°C° 0.3 mm 4 mps 752 mmHg 87%
    02:00 +3°C° 0.3 mm 4 mps 752 mmHg 86%
    03:00 +3°C° 0.3 mm 4 mps 753 mmHg 85%
    04:00 +3°C° 0.1 mm 4 mps 753 mmHg 86%
    05:00 +2°C° 0.1 mm 3 mps 753 mmHg 87%
    06:00 +2°C° 0.1 mm 3 mps 754 mmHg 88%
    07:00 +2°C° 0 mm 3 mps 754 mmHg 87%
    08:00 0°C° 0 mm 4 mps 755 mmHg 87%
    09:00 0°C° 0 mm 4 mps 755 mmHg 87%
    10:00 +1°C° 0 mm 4 mps 755 mmHg 83%
    11:00 +3°C° 0 mm 4 mps 756 mmHg 78%
    12:00 +3°C° 0 mm 4 mps 756 mmHg 74%
    13:00 +3°C° 0 mm 4 mps 756 mmHg 73%
    14:00 +4°C° 0 mm 4 mps 756 mmHg 71%
    15:00 +4°C° 0 mm 4 mps 757 mmHg 70%
    16:00 +3°C° 0 mm 3 mps 757 mmHg 74%
    17:00 +2°C° 0 mm 3 mps 757 mmHg 78%
    18:00 +3°C° 0 mm 2 mps 758 mmHg 82%
    19:00 +2°C° 0 mm 2 mps 758 mmHg 83%
    20:00 +2°C° 0 mm 2 mps 759 mmHg 83%
    21:00 +2°C° 0 mm 2 mps 759 mmHg 84%
    22:00 +2°C° 0 mm 2 mps 759 mmHg 85%
    23:00 +2°C° 0 mm 2 mps 759 mmHg 85%

    Day after tomorrow, 14 December, Friday

    Time Temperature Precipitation Wind Pressure Humidity
    00:00 +2°C° 0 mm 2 mps 760 mmHg 85%
    01:00 +2°C° 0 mm 2 mps 760 mmHg 87%
    02:00 +2°C° 0 mm 2 mps 760 mmHg 88%
    03:00 +1°C° 0 mm 2 mps 760 mmHg 89%
    04:00 +1°C° 0 mm 2 mps 760 mmHg 89%
    05:00 +1°C° 0 mm 2 mps 760 mmHg 89%
    06:00 +2°C° 0 mm 1 mps 760 mmHg 89%
    07:00 +1°C° 0 mm 2 mps 760 mmHg 87%
    08:00 +2°C° 0 mm 2 mps 760 mmHg 85%
    09:00 +2°C° 0 mm 2 mps 760 mmHg 83%
    10:00 +3°C° 0 mm 2 mps 760 mmHg 77%
    11:00 +3°C° 0 mm 3 mps 760 mmHg 71%
    12:00 +5°C° 0 mm 3 mps 760 mmHg 66%
    13:00 +5°C° 0 mm 3 mps 760 mmHg 66%
    14:00 +5°C° 0 mm 3 mps 760 mmHg 66%
    15:00 +5°C° 0 mm 3 mps 760 mmHg 66%
    16:00 +5°C° 0 mm 2 mps 760 mmHg 70%
    17:00 +4°C° 0 mm 2 mps 760 mmHg 75%
    18:00 +3°C° 0 mm 2 mps 760 mmHg 79%
    19:00 +3°C° 0 mm 2 mps 760 mmHg 80%
    20:00 +3°C° 0 mm 2 mps 761 mmHg 81%
    21:00 +3°C° 0 mm 2 mps 761 mmHg 82%
    22:00 +3°C° 0 mm 2 mps 761 mmHg 82%
    23:00 +3°C° 0 mm 2 mps 761 mmHg 82%

    15 December, Saturday

    Time Temperature Precipitation Wind Pressure Humidity
    00:00 +2°C° 0 mm 2 mps 761 mmHg 83%
    01:00 +3°C° 0.1 mm 2 mps 761 mmHg 83%
    02:00 +3°C° 0.1 mm 2 mps 761 mmHg 83%
    03:00 +3°C° 0.1 mm 2 mps 762 mmHg 83%
    04:00 +3°C° 0 mm 2 mps 762 mmHg 83%
    05:00 +3°C° 0 mm 2 mps 762 mmHg 83%
    06:00 +2°C° 0 mm 2 mps 762 mmHg 83%
    07:00 +3°C° 0 mm 2 mps 762 mmHg 82%
    08:00 +2°C° 0 mm 3 mps 763 mmHg 82%
    09:00 +2°C° 0 mm 3 mps 763 mmHg 82%
    10:00 +3°C° 0 mm 3 mps 763 mmHg 79%
    11:00 +3°C° 0 mm 3 mps 763 mmHg 77%
    12:00 +4°C° 0 mm 4 mps 762 mmHg 74%
    13:00 +4°C° 0 mm 3 mps 763 mmHg 71%
    14:00 +4°C° 0 mm 3 mps 763 mmHg 68%
    15:00 +5°C° 0 mm 3 mps 763 mmHg 65%
    16:00 +4°C° 0 mm 3 mps 763 mmHg 70%
    17:00 +4°C° 0 mm 2 mps 763 mmHg 74%
    18:00 +4°C° 0 mm 1 mps 763 mmHg 78%
    19:00 +3°C° 0 mm 1 mps 763 mmHg 80%
    20:00 +3°C° 0 mm 1 mps 763 mmHg 82%
    21:00 +3°C° 0 mm 1 mps 763 mmHg 84%
    22:00 +2°C° 0 mm 1 mps 763 mmHg 85%
    23:00 +2°C° 0 mm 1 mps 763 mmHg 86%

    16 December, Sunday

    Time Temperature Precipitation Wind Pressure Humidity
    00:00 +2°C° 0 mm 1 mps 763 mmHg 88%
    01:00 +2°C° 0 mm 1 mps 763 mmHg 88%
    02:00 +1°C° 0 mm 1 mps 763 mmHg 88%
    03:00 -1°C° 0 mm 2 mps 763 mmHg 89%
    04:00 -1°C° 0 mm 2 mps 763 mmHg 89%
    05:00 -1°C° 0 mm 2 mps 763 mmHg 88%
    06:00 -1°C° 0 mm 2 mps 763 mmHg 88%
    07:00 -1°C° 0 mm 3 mps 763 mmHg 86%
    08:00 -1°C° 0 mm 3 mps 764 mmHg 84%
    09:00 -1°C° 0 mm 3 mps 764 mmHg 82%
    10:00 -1°C° 0 mm 4 mps 763 mmHg 78%
    11:00 0°C° 0 mm 4 mps 763 mmHg 73%
    12:00 0°C° 0 mm 4 mps 763 mmHg 68%
    13:00 0°C° 0 mm 5 mps 763 mmHg 68%
    14:00 0°C° 0 mm 5 mps 763 mmHg 69%
    15:00 0°C° 0 mm 5 mps 762 mmHg 69%
    16:00 0°C° 0 mm 5 mps 763 mmHg 72%
    17:00 -1°C° 0 mm 5 mps 763 mmHg 75%
    18:00 -2°C° 0 mm 5 mps 763 mmHg 77%
    19:00 -3°C° 0 mm 6 mps 763 mmHg 78%
    20:00 -3°C° 0 mm 6 mps 763 mmHg 79%
    21:00 -3°C° 0 mm 6 mps 763 mmHg 79%
    22:00 -3°C° 0 mm 6 mps 763 mmHg 79%
    23:00 -4°C° 0 mm 6 mps 763 mmHg 80%

    17 December, Monday

    Time Temperature Precipitation Wind Pressure Humidity
    00:00 -4°C° 0 mm 6 mps 762 mmHg 80%
    01:00 -4°C° 0 mm 6 mps 762 mmHg 80%
    02:00 -4°C° 0 mm 6 mps 762 mmHg 80%
    03:00 -4°C° 0 mm 6 mps 762 mmHg 79%
    04:00 -4°C° 0 mm 6 mps 762 mmHg 79%
    05:00 -4°C° 0 mm 7 mps 762 mmHg 79%
    06:00 -4°C° 0 mm 7 mps 762 mmHg 78%
    07:00 -3°C° 0 mm 7 mps 762 mmHg 78%
    08:00 -3°C° 0 mm 7 mps 762 mmHg 77%
    09:00 -3°C° 0 mm 7 mps 762 mmHg 76%
    10:00 -2°C° 0 mm 7 mps 761 mmHg 74%
    11:00 -2°C° 0 mm 7 mps 761 mmHg 72%
    12:00 -1°C° 0 mm 7 mps 761 mmHg 69%
    13:00 -1°C° 0 mm 7 mps 761 mmHg 70%
    14:00 0°C° 0 mm 7 mps 760 mmHg 71%
    15:00 +1°C° 0 mm 6 mps 760 mmHg 72%
    16:00 -1°C° 0 mm 6 mps 760 mmHg 74%
    17:00 -1°C° 0 mm 6 mps 761 mmHg 77%
    18:00 -2°C° 0 mm 6 mps 761 mmHg 79%
    19:00 -2°C° 0 mm 6 mps 761 mmHg 80%
    20:00 -2°C° 0 mm 6 mps 761 mmHg 81%
    21:00 -2°C° 0 mm 6 mps 761 mmHg 82%
    22:00 -2°C° 0 mm 6 mps 761 mmHg 83%
    23:00 -2°C° 0 mm 6 mps 760 mmHg 83%
    Show more